Change the Weather History Date:

Saturday, February 11, 2012

  Actual Average Record
Temperature  
Mean Temperature 36 °F 28 °F  
Max Temperature 45 °F 38 °F 59 °F (1971)
Min Temperature 27 °F 17 °F -11 °F (1999)
Degree Days  
Heating Degree Days 29 37  
Month to date heating degree days 358 421  
Since 1 July heating degree days 4525 4934  
Cooling Degree Days 0 0  
Month to date cooling degree days 0 0  
Year to date cooling degree days 0 0  
Moisture  
Dew Point 30 °F    
Average Humidity 78    
Maximum Humidity 100    
Minimum Humidity 55    
Precipitation  
Precipitation T in 0.04 in 0.63 in (1958)
Month to date precipitation 0.09 0.39  
Year to date precipitation 2.46 1.58  
Sea Level Pressure  
Sea Level Pressure 30.03 in    
Wind  
Wind Speed 6 mph (WNW)    
Max Wind Speed 15 mph    
Max Gust Speed 17 mph    
Visibility 9 miles    
Events      
T = Trace of Precipitation, MM = Missing Value Source: NWS Daily Summary

Daily Weather History Graph

Daily Weather History Graph

Search for Another Location

Airport or City:

Trip Planner

Search our weather history database for the weather conditions in past years. The results will help you decide how hot, cold, wet, or windy it might be!

Date:

Astronomy

Feb. 11, 2012 Rise Set
Actual Time 7:00 AM PST 5:20 PM PST
Civil Twilight 6:30 AM PST 5:50 PM PST
Nautical Twilight 5:57 AM PST 6:23 PM PST
Astronomical Twilight 5:23 AM PST 6:57 PM PST
Moon 10:26 PM PST (2/11) 8:35 AM PST (2/11)
Length of Visible Light 11h 19m
Length of Day
10h 19m
Waning Gibbous, 81% of the Moon is Illuminated
Feb 11
Waning Gibbous
Feb 14
Last Quarter
Feb 21
New
Feb 29
First Quarter
Mar 8
Full

Hourly Weather History & Observations

Time (PST) Temp. Windchill Dew Point Humidity Pressure Visibility Wind Dir Wind Speed Gust Speed Precip Events Conditions
12:53 AM 34.0 °F - 32.0 °F 92% 30.01 in 10.0 mi Calm Calm - N/A   Mostly Cloudy
1:53 AM 30.9 °F 27.5 °F 30.0 °F 96% 30.02 in 8.0 mi SW 3.5 mph - N/A   Overcast
2:53 AM 32.0 °F 28.7 °F 30.0 °F 92% 30.01 in 10.0 mi SW 3.5 mph - N/A   Overcast
3:53 AM 33.1 °F - 30.9 °F 92% 30.01 in 10.0 mi Calm Calm - N/A   Overcast
4:53 AM 30.0 °F 25.2 °F 28.9 °F 96% 30.03 in 9.0 mi ESE 4.6 mph - N/A   Scattered Clouds
5:42 AM 30.2 °F - 28.4 °F 93% 30.00 in 9.0 mi Calm Calm - N/A   Mostly Cloudy
5:53 AM 30.9 °F - 28.9 °F 92% 30.04 in 8.0 mi Calm Calm - N/A   Overcast
6:22 AM 30.2 °F 25.4 °F 28.4 °F 93% 29.99 in 8.0 mi NNW 4.6 mph - N/A   Mostly Cloudy
6:53 AM 30.9 °F - 28.9 °F 92% 30.06 in 8.0 mi Calm Calm - N/A   Overcast
7:04 AM 30.2 °F - 30.2 °F 100% 30.00 in 8.0 mi Calm Calm - N/A   Overcast
7:53 AM 33.1 °F - 30.9 °F 92% 30.06 in 4.0 mi Calm Calm - 0.00 in   Overcast
8:02 AM 33.8 °F - 30.2 °F 87% 30.01 in 4.0 mi Calm Calm - N/A   Overcast
8:19 AM 33.8 °F - 30.2 °F 87% 30.01 in 1.8 mi Calm Calm - N/A   Overcast
8:24 AM 33.8 °F - 32.0 °F 93% 30.01 in 0.8 mi Calm Calm - N/A   Overcast
8:42 AM 33.8 °F - 32.0 °F 93% 30.02 in 1.5 mi Calm Calm - N/A   Overcast
8:53 AM 34.0 °F - 33.1 °F 96% 30.07 in 2.5 mi Calm Calm - N/A   Overcast
9:01 AM 33.8 °F - 33.8 °F 100% 30.02 in 3.0 mi Calm Calm - N/A   Overcast
9:53 AM 35.1 °F - 34.0 °F 96% 30.07 in 5.0 mi Calm Calm - N/A   Overcast
10:53 AM 39.9 °F 36.7 °F 36.0 °F 86% 30.07 in 10.0 mi WSW 4.6 mph - N/A   Overcast
11:53 AM 43.0 °F 37.2 °F 33.1 °F 68% 30.05 in 10.0 mi WNW 10.4 mph - N/A   Overcast
12:35 PM 44.6 °F 42.2 °F 33.8 °F 66% 30.00 in 10.0 mi WNW 4.6 mph - N/A   Overcast
12:43 PM 44.6 °F 39.7 °F 33.8 °F 66% 30.00 in 10.0 mi WNW 9.2 mph - N/A   Overcast
12:53 PM 45.0 °F 41.8 °F 34.0 °F 65% 30.02 in 10.0 mi West 5.8 mph - N/A   Overcast
1:53 PM 43.0 °F 37.2 °F 33.1 °F 68% 30.03 in 10.0 mi West 10.4 mph - N/A   Overcast
2:16 PM 42.8 °F 37.0 °F 33.8 °F 70% 29.99 in 10.0 mi West 10.4 mph - N/A   Overcast
2:53 PM 43.0 °F 36.4 °F 33.1 °F 68% 30.02 in 10.0 mi WNW 12.7 mph - N/A   Overcast
3:07 PM 42.8 °F 35.8 °F 33.8 °F 70% 29.99 in 10.0 mi WNW 13.8 mph - N/A   Overcast
3:30 PM 41.0 °F 34.3 °F 33.8 °F 76% 29.99 in 10.0 mi WNW 11.5 mph - N/A   Overcast
3:53 PM 39.9 °F 33.9 °F 33.1 °F 77% 30.03 in 10.0 mi WNW 9.2 mph - N/A   Overcast
4:53 PM 41.0 °F 34.3 °F 27.0 °F 57% 30.03 in 10.0 mi NNW 11.5 mph - N/A   Overcast
5:53 PM 36.0 °F 29.0 °F 26.1 °F 67% 30.06 in 10.0 mi WNW 9.2 mph - N/A   Partly Cloudy
6:53 PM 35.1 °F 28.6 °F 26.1 °F 70% 30.06 in 10.0 mi WNW 8.1 mph - N/A   Overcast
7:53 PM 34.0 °F 26.6 °F 24.1 °F 67% 30.06 in 10.0 mi West 9.2 mph - N/A   Overcast
8:53 PM 32.0 °F 24.2 °F 23.0 °F 69% 30.07 in 10.0 mi West 9.2 mph - N/A   Clear
9:53 PM 30.0 °F 21.1 °F 21.9 °F 72% 30.07 in 10.0 mi West 10.4 mph - N/A   Clear
10:53 PM 28.9 °F 21.1 °F 21.9 °F 75% 30.06 in 10.0 mi West 8.1 mph - N/A   Clear
11:53 PM 27.0 °F 20.5 °F 23.0 °F 85% 30.06 in 10.0 mi West 5.8 mph - N/A   Clear